Location: Aydie
(43.5695°N, 0.1043°W)
Time: 08:24:56
(UTC+00:00)

Cosmos 1763 Rocket - Pass Details

Date: 17 November 2025
Orbit: 728 x 774 km, 74.0° (Epoch: 13 December)

Event Time Altitude Azimuth Distance (km) Brightness Sun altitude
Rises 17:28:28 0° 341° (NNW) 3,236 6.8 -10.1°
Reaches altitude 10° 17:30:53 10° 344° (NNW) 2,300 6.0 -10.5°
Maximum altitude 17:36:05 68° 68° (ENE) 810 3.4 -11.4°
Drops below altitude 10° 17:41:10 10° 151° (SSE) 2,254 5.8 -12.3°
Sets 17:43:31 0° 154° (SSE) 3,166 6.6 -12.7°
